Starlink 33867

operational
NORAD ID: 63795 Int'l Des: 2025-091 Owner: SPXS Country: US Constellation: starlink
LEOCIRCULAR

Starlink 33867について

説明を読み込み中...

リアルタイム位置

3D地球を読み込み中...

次回通過

高度履歴

Altitude vs Time

uPlot chart will show altitude changes over time

軌道要素

1 63795U 25091W 25304.70459725 .00035023 00000-0 12753-2 0 9993
2 63795 43.0018 61.1352 0000818 273.7458 86.3300 15.27603655 29178
Epoch: Oct 31, 2025 • Age: 21 hours

現在のステータス

高度 482.4 km
速度 7.63 km/s
衛星直下点 18.77°N, 35.76°W
打ち上げ日 May 2, 2025
運用期間 0.5 years
タイプ internet

技術仕様

分類 Payload
質量 575.00 kg
乾燥質量 530.00 kg
総質量 575.00 kg
長さ 0.30 m
直径 4.10 m
スパン 29.00 m
形状 Box + pan
製造者 SPXS
バスタイプ Starlink V2MO
フェーズステータス In Orbit
所有者/国 SPXS/US

大規模コンステレーション

Loading constellations...